| time (UTC) | temp F | wind direction | speed MPH | gust MPH | rain 1hr in | rain 24hr in | rain mn in | humidity % | barometer mb |
| 20260510084844 | 66 | 282 | 1.0 | 1.0 | 0.00 | 0.00 | 0.00 | 86 | 1017.8 |
| 20260510084342 | 67 | 295 | 0.0 | 0.0 | 0.00 | 0.00 | 0.00 | 88 | 1017.8 |
| 20260510083838 | 67 | 304 | 1.0 | 1.0 | 0.00 | 0.00 | 0.00 | 85 | 1017.6 |
| 20260510083335 | 66 | 312 | 1.0 | 1.0 | 0.00 | 0.00 | 0.00 | 86 | 1017.8 |
| 20260510082830 | 66 | 309 | 1.0 | 1.0 | 0.00 | 0.00 | 0.00 | 87 | 1017.4 |
| 20260510082328 | 66 | 298 | 0.0 | 1.0 | 0.00 | 0.00 | 0.00 | 89 | 1017.6 |
| 20260510081826 | 66 | 274 | 0.0 | 1.0 | 0.00 | 0.00 | 0.00 | 87 | 1017.6 |
| 20260510081323 | 67 | 47 | 2.0 | 2.0 | 0.00 | 0.00 | 0.00 | 84 | 1017.6 |
| 20260510080819 | 67 | 319 | 0.0 | 0.0 | 0.00 | 0.00 | 0.00 | 86 | 1017.4 |
| 20260510080314 | 66 | 315 | 0.0 | 0.0 | 0.00 | 0.00 | 0.00 | 87 | 1017.6 |
| 20260510075811 | 66 | 314 | 0.0 | 0.0 | 0.00 | 0.00 | 0.00 | 90 | 1017.5 |
| 20260510075308 | 66 | 319 | 0.0 | 0.0 | 0.00 | 0.00 | 0.00 | 90 | 1017.7 |
| 20260510074805 | 67 | 313 | 0.0 | 0.0 | 0.00 | 0.00 | 0.00 | 87 | 1017.8 |
| 20260510074302 | 67 | 285 | 1.0 | 1.0 | 0.00 | 0.00 | 0.00 | 85 | 1017.4 |
| 20260510073758 | 67 | 297 | 0.0 | 1.0 | 0.00 | 0.00 | 0.00 | 87 | 1017.7 |
| 20260510073254 | 67 | 304 | 0.0 | 0.0 | 0.00 | 0.00 | 0.00 | 87 | 1017.7 |
| 20260510072750 | 68 | 293 | 0.0 | 0.0 | 0.00 | 0.00 | 0.00 | 85 | 1017.6 |
| 20260510072247 | 68 | 312 | 0.0 | 0.0 | 0.00 | 0.00 | 0.00 | 83 | 1017.6 |
| 20260510071743 | 68 | 283 | 1.0 | 1.0 | 0.00 | 0.00 | 0.00 | 82 | 1017.7 |
| 20260510071240 | 68 | 297 | 0.0 | 0.0 | 0.00 | 0.00 | 0.00 | 86 | 1017.7 |
| 20260510070738 | 69 | 306 | 0.0 | 0.0 | 0.00 | 0.00 | 0.00 | 86 | 1017.6 |
| 20260510070235 | 69 | 271 | 2.0 | 3.0 | 0.00 | 0.00 | 0.00 | 82 | 1017.5 |
| 20260510065729 | 69 | 282 | 0.0 | 1.0 | 0.00 | 0.00 | 0.00 | 82 | 1017.7 |
| 20260510065226 | 69 | 228 | 1.0 | 1.0 | 0.00 | 0.00 | 0.00 | 83 | 1017.7 |
| 20260510064722 | 68 | 285 | 1.0 | 1.0 | 0.00 | 0.00 | 0.00 | 84 | 1017.9 |
| 20260510064220 | 66 | 302 | 0.0 | 1.0 | 0.00 | 0.00 | 0.00 | 91 | 1017.9 |
| 20260510063716 | 66 | 293 | 0.0 | 0.0 | 0.00 | 0.00 | 0.00 | 92 | 1017.7 |
| 20260510063212 | 66 | 320 | 0.0 | 0.0 | 0.00 | 0.00 | 0.00 | 91 | 1017.7 |
| 20260510062709 | 66 | 313 | 1.0 | 1.0 | 0.00 | 0.00 | 0.00 | 91 | 1017.8 |
| 20260510062206 | 66 | 314 | 0.0 | 0.0 | 0.00 | 0.00 | 0.00 | 92 | 1017.6 |
| 20260510061700 | 65 | 321 | 1.0 | 1.0 | 0.00 | 0.00 | 0.00 | 92 | 1017.8 |
| 20260510061158 | 66 | 316 | 1.0 | 1.0 | 0.00 | 0.00 | 0.00 | 90 | 1018.0 |
| 20260510060655 | 67 | 54 | 2.0 | 2.0 | 0.00 | 0.00 | 0.00 | 89 | 1018.0 |
| 20260510060151 | 67 | 312 | 0.0 | 0.0 | 0.00 | 0.00 | 0.00 | 89 | 1018.0 |
| 20260510055647 | 66 | 327 | 1.0 | 1.0 | 0.00 | 0.00 | 0.00 | 90 | 1017.9 |
| 20260510055145 | 67 | 307 | 0.0 | 1.0 | 0.00 | 0.00 | 0.00 | 90 | 1017.8 |
| 20260510054641 | 66 | 290 | 0.0 | 0.0 | 0.00 | 0.00 | 0.00 | 88 | 1017.9 |
| 20260510054137 | 66 | 301 | 0.0 | 0.0 | 0.00 | 0.00 | 0.00 | 90 | 1017.8 |
| 20260510053636 | 66 | 314 | 0.0 | 0.0 | 0.00 | 0.00 | 0.00 | 89 | 1018.1 |
| 20260510053133 | 66 | 272 | 0.0 | 1.0 | 0.00 | 0.00 | 0.00 | 89 | 1018.2 |
| 20260510052629 | 66 | 312 | 0.0 | 1.0 | 0.00 | 0.00 | 0.00 | 89 | 1018.4 |
| 20260510052125 | 65 | 302 | 0.0 | 0.0 | 0.00 | 0.00 | 0.00 | 90 | 1018.0 |
| 20260510051620 | 65 | 302 | 0.0 | 0.0 | 0.00 | 0.00 | 0.00 | 91 | 1018.2 |
| 20260510051118 | 65 | 317 | 1.0 | 1.0 | 0.00 | 0.00 | 0.00 | 92 | 1018.2 |
| 20260510050615 | 65 | 307 | 0.0 | 0.0 | 0.00 | 0.00 | 0.00 | 92 | 1018.1 |
| 20260510050112 | 64 | 302 | 0.0 | 0.0 | 0.00 | 0.00 | 0.00 | 91 | 1018.2 |
| 20260510045609 | 64 | 295 | 0.0 | 0.0 | 0.00 | 0.00 | 0.00 | 92 | 1018.4 |
| 20260510045105 | 65 | 323 | 1.0 | 1.0 | 0.00 | 0.00 | 0.00 | 92 | 1018.5 |
| 20260510044602 | 65 | 284 | 0.0 | 0.0 | 0.00 | 0.00 | 0.00 | 92 | 1018.4 |
| 20260510044059 | 66 | 298 | 0.0 | 1.0 | 0.00 | 0.00 | 0.00 | 91 | 1018.3 |
| 20260510043554 | 67 | 292 | 0.0 | 0.0 | 0.00 | 0.00 | 0.00 | 88 | 1018.3 |
| 20260510043051 | 67 | 284 | 0.0 | 0.0 | 0.00 | 0.00 | 0.00 | 87 | 1018.4 |
| 20260510042550 | 67 | 253 | 1.0 | 1.0 | 0.00 | 0.00 | 0.00 | 85 | 1018.5 |
| 20260510042045 | 65 | 170 | 2.0 | 5.0 | 0.00 | 0.00 | 0.00 | 92 | 1018.7 |
| 20260510041542 | 65 | 292 | 0.0 | 0.0 | 0.00 | 0.00 | 0.00 | 91 | 1018.7 |
| 20260510041040 | 66 | 299 | 0.0 | 0.0 | 0.00 | 0.00 | 0.00 | 91 | 1018.7 |
| 20260510040536 | 66 | 289 | 0.0 | 0.0 | 0.00 | 0.00 | 0.00 | 89 | 1018.6 |
| 20260510040032 | 66 | 254 | 1.0 | 1.0 | 0.00 | 0.00 | 0.00 | 90 | 1018.9 |
| 20260510035529 | 66 | 326 | 0.0 | 1.0 | 0.00 | 0.00 | 0.00 | 92 | 1018.6 |
| 20260510035028 | 66 | 313 | 0.0 | 1.0 | 0.00 | 0.00 | 0.00 | 91 | 1019.0 |
| 20260510034527 | 66 | 300 | 0.0 | 0.0 | 0.00 | 0.00 | 0.00 | 91 | 1019.0 |
| 20260510034023 | 66 | 319 | 0.0 | 0.0 | 0.00 | 0.00 | 0.00 | 91 | 1018.7 |
| 20260510033519 | 67 | 298 | 0.0 | 0.0 | 0.00 | 0.00 | 0.00 | 91 | 1018.9 |
| 20260510033018 | 67 | 325 | 1.0 | 1.0 | 0.00 | 0.00 | 0.00 | 91 | 1019.0 |
| 20260510032514 | 67 | 318 | 1.0 | 1.0 | 0.00 | 0.00 | 0.00 | 89 | 1018.9 |
| 20260510032009 | 67 | 296 | 1.0 | 2.0 | 0.00 | 0.00 | 0.00 | 89 | 1019.1 |
| 20260510031504 | 67 | 316 | 0.0 | 0.0 | 0.00 | 0.00 | 0.00 | 92 | 1019.0 |
| 20260510031001 | 67 | 321 | 0.0 | 0.0 | 0.00 | 0.00 | 0.00 | 92 | 1019.1 |
| 20260510030456 | 67 | 319 | 0.0 | 0.0 | 0.00 | 0.00 | 0.00 | 92 | 1019.3 |
| 20260510025953 | 67 | 303 | 0.0 | 0.0 | 0.00 | 0.00 | 0.00 | 92 | 1019.0 |
| 20260510025450 | 67 | 314 | 0.0 | 1.0 | 0.00 | 0.00 | 0.00 | 92 | 1019.5 |
| 20260510024948 | 67 | 304 | 0.0 | 0.0 | 0.00 | 0.00 | 0.00 | 93 | 1019.4 |
| 20260510024444 | 67 | 310 | 0.0 | 0.0 | 0.00 | 0.00 | 0.00 | 93 | 1019.3 |
| 20260510023940 | 67 | 307 | 0.0 | 1.0 | 0.00 | 0.00 | 0.00 | 92 | 1019.3 |
| 20260510023437 | 67 | 300 | 1.0 | 1.0 | 0.00 | 0.00 | 0.00 | 93 | 1019.2 |
| 20260510022934 | 67 | 290 | 1.0 | 1.0 | 0.00 | 0.00 | 0.00 | 92 | 1019.1 |
| 20260510022433 | 67 | 296 | 0.0 | 0.0 | 0.00 | 0.00 | 0.00 | 92 | 1019.1 |
| 20260510021932 | 67 | 306 | 0.0 | 0.0 | 0.00 | 0.00 | 0.00 | 92 | 1019.0 |
| 20260510021430 | 67 | 306 | 0.0 | 1.0 | 0.00 | 0.00 | 0.00 | 91 | 1019.0 |
| 20260510020926 | 68 | 317 | 0.0 | 0.0 | 0.00 | 0.00 | 0.00 | 91 | 1018.9 |
| 20260510020421 | 68 | 293 | 0.0 | 0.0 | 0.00 | 0.00 | 0.00 | 89 | 1018.9 |
| 20260510015917 | 69 | 291 | 0.0 | 0.0 | 0.00 | 0.00 | 0.00 | 87 | 1018.9 |
| 20260510015413 | 69 | 282 | 0.0 | 1.0 | 0.00 | 0.00 | 0.00 | 86 | 1019.0 |
| 20260510014908 | 69 | 284 | 0.0 | 0.0 | 0.00 | 0.00 | 0.00 | 86 | 1019.1 |
| 20260510014406 | 69 | 246 | 2.0 | 2.0 | 0.00 | 0.00 | 0.00 | 86 | 1018.7 |
| 20260510013903 | 69 | 302 | 1.0 | 1.0 | 0.00 | 0.00 | 0.00 | 87 | 1018.9 |
| 20260510013357 | 68 | 280 | 1.0 | 1.0 | 0.00 | 0.00 | 0.00 | 88 | 1019.1 |
| 20260510012852 | 68 | 285 | 0.0 | 0.0 | 0.00 | 0.00 | 0.00 | 89 | 1019.1 |
| 20260510012348 | 68 | 288 | 0.0 | 0.0 | 0.00 | 0.00 | 0.00 | 89 | 1019.1 |
| 20260510011843 | 68 | 299 | 0.0 | 0.0 | 0.00 | 0.00 | 0.00 | 88 | 1019.1 |
| 20260510011338 | 69 | 288 | 0.0 | 0.0 | 0.00 | 0.00 | 0.00 | 87 | 1019.0 |
| 20260510010835 | 69 | 301 | 0.0 | 1.0 | 0.00 | 0.00 | 0.00 | 85 | 1018.9 |
| 20260510010332 | 70 | 279 | 1.0 | 1.0 | 0.00 | 0.00 | 0.00 | 84 | 1018.9 |
| 20260510005828 | 70 | 279 | 1.0 | 2.0 | 0.00 | 0.00 | 0.00 | 84 | 1018.6 |
| 20260510005325 | 70 | 285 | 1.0 | 1.0 | 0.00 | 0.00 | 0.00 | 83 | 1018.9 |
| 20260510004823 | 70 | 262 | 1.0 | 1.0 | 0.00 | 0.00 | 0.00 | 83 | 1018.7 |
| 20260510004320 | 70 | 266 | 2.0 | 2.0 | 0.00 | 0.00 | 0.00 | 83 | 1018.4 |
| 20260510003818 | 70 | 299 | 2.0 | 2.0 | 0.00 | 0.00 | 0.00 | 81 | 1018.5 |
| 20260510003315 | 70 | 283 | 1.0 | 1.0 | 0.00 | 0.00 | 0.00 | 80 | 1018.4 |
| 20260510002813 | 70 | 254 | 4.0 | 5.0 | 0.00 | 0.00 | 0.00 | 80 | 1018.3 |
| 20260510002311 | 70 | 315 | 1.0 | 1.0 | 0.00 | 0.00 | 0.00 | 80 | 1018.6 |
| 20260510001807 | 70 | 264 | 3.0 | 5.0 | 0.00 | 0.00 | 0.00 | 80 | 1018.4 |
| 20260510001305 | 70 | 248 | 3.0 | 3.0 | 0.00 | 0.00 | 0.00 | 81 | 1018.1 |
| 20260510000801 | 70 | 293 | 0.0 | 1.0 | 0.00 | 0.00 | 0.00 | 82 | 1018.5 |
| 20260510000259 | 70 | 267 | 0.0 | 1.0 | 0.00 | 0.00 | 0.00 | 83 | 1018.1 |
| 20260509235756 | 70 | 273 | 1.0 | 1.0 | 0.00 | 0.00 | 0.00 | 86 | 1018.2 |
| 20260509235252 | 69 | 286 | 0.0 | 0.0 | 0.00 | 0.00 | 0.00 | 91 | 1018.1 |
| 20260509234747 | 70 | 282 | 0.0 | 1.0 | 0.00 | 0.00 | 0.00 | 91 | 1018.2 |
| 20260509234245 | 70 | 264 | 0.0 | 0.0 | 0.00 | 0.00 | 0.00 | 91 | 1018.1 |
| 20260509233743 | 70 | 263 | 0.0 | 0.0 | 0.00 | 0.00 | 0.00 | 90 | 1017.9 |
| 20260509233240 | 70 | 285 | 0.0 | 0.0 | 0.00 | 0.00 | 0.00 | 91 | 1018.0 |
| 20260509232736 | 70 | 274 | 0.0 | 0.0 | 0.00 | 0.00 | 0.00 | 91 | 1017.7 |
| 20260509232233 | 70 | 272 | 0.0 | 0.0 | 0.00 | 0.00 | 0.00 | 91 | 1017.7 |
| 20260509231730 | 71 | 273 | 0.0 | 0.0 | 0.00 | 0.00 | 0.00 | 91 | 1017.7 |
| 20260509231227 | 71 | 284 | 0.0 | 0.0 | 0.00 | 0.00 | 0.00 | 90 | 1017.6 |
| 20260509230725 | 71 | 263 | 0.0 | 0.0 | 0.00 | 0.00 | 0.00 | 89 | 1017.3 |
| 20260509230221 | 72 | 280 | 1.0 | 1.0 | 0.00 | 0.00 | 0.00 | 88 | 1017.2 |
| 20260509225716 | 72 | 261 | 1.0 | 2.0 | 0.00 | 0.00 | 0.00 | 87 | 1017.2 |
| 20260509225212 | 72 | 268 | 1.0 | 2.0 | 0.00 | 0.00 | 0.00 | 87 | 1017.3 |
| 20260509224708 | 72 | 254 | 4.0 | 5.0 | 0.00 | 0.00 | 0.00 | 86 | 1017.2 |
| 20260509224205 | 73 | 259 | 2.0 | 3.0 | 0.00 | 0.00 | 0.00 | 86 | 1017.2 |
| 20260509223702 | 73 | 259 | 4.0 | 5.0 | 0.00 | 0.00 | 0.00 | 85 | 1017.1 |
| 20260509223154 | 73 | 279 | 2.0 | 3.0 | 0.00 | 0.00 | 0.00 | 84 | 1017.3 |
| 20260509222651 | 74 | 264 | 3.0 | 5.0 | 0.00 | 0.00 | 0.00 | 83 | 1017.1 |
| 20260509222146 | 74 | 266 | 7.0 | 8.0 | 0.00 | 0.00 | 0.00 | 82 | 1017.1 |
| 20260509221642 | 75 | 262 | 2.0 | 2.0 | 0.00 | 0.00 | 0.00 | 82 | 1017.0 |
| 20260509221138 | 75 | 258 | 3.0 | 3.0 | 0.00 | 0.00 | 0.00 | 82 | 1016.9 |
| 20260509220634 | 75 | 259 | 2.0 | 2.0 | 0.00 | 0.00 | 0.00 | 82 | 1016.9 |
| 20260509220130 | 75 | 258 | 2.0 | 2.0 | 0.00 | 0.00 | 0.00 | 82 | 1016.6 |
| 20260509215627 | 75 | 258 | 3.0 | 3.0 | 0.00 | 0.00 | 0.00 | 81 | 1016.9 |
| 20260509215123 | 75 | 258 | 2.0 | 3.0 | 0.00 | 0.00 | 0.00 | 80 | 1016.6 |
| 20260509214621 | 75 | 258 | 3.0 | 5.0 | 0.00 | 0.00 | 0.00 | 79 | 1016.7 |
| 20260509214117 | 76 | 258 | 4.0 | 5.0 | 0.00 | 0.00 | 0.00 | 77 | 1016.5 |
| 20260509213613 | 77 | 249 | 2.0 | 2.0 | 0.00 | 0.00 | 0.00 | 77 | 1016.3 |
| 20260509213110 | 77 | 222 | 4.0 | 5.0 | 0.00 | 0.00 | 0.00 | 76 | 1016.3 |
| 20260509212607 | 77 | 262 | 6.0 | 8.0 | 0.00 | 0.00 | 0.00 | 75 | 1016.3 |
| 20260509212104 | 77 | 258 | 6.0 | 7.0 | 0.00 | 0.00 | 0.00 | 78 | 1016.3 |
| 20260509211600 | 77 | 258 | 3.0 | 6.0 | 0.00 | 0.00 | 0.00 | 77 | 1016.4 |
| 20260509211057 | 77 | 258 | 1.0 | 1.0 | 0.00 | 0.00 | 0.00 | 76 | 1016.3 |
| 20260509210553 | 76 | 258 | 3.0 | 3.0 | 0.00 | 0.00 | 0.00 | 75 | 1016.4 |
| 20260509210050 | 77 | 258 | 2.0 | 2.0 | 0.00 | 0.00 | 0.00 | 77 | 1016.3 |
| 20260509205544 | 77 | 258 | 4.0 | 7.0 | 0.00 | 0.00 | 0.00 | 77 | 1016.4 |
| 20260509205040 | 77 | 258 | 0.0 | 1.0 | 0.00 | 0.00 | 0.00 | 77 | 1016.3 |
| 20260509204536 | 77 | 258 | 2.0 | 2.0 | 0.00 | 0.00 | 0.00 | 77 | 1016.3 |
| 20260509204032 | 77 | 258 | 1.0 | 2.0 | 0.00 | 0.00 | 0.00 | 75 | 1016.4 |
| 20260509203528 | 77 | 258 | 2.0 | 3.0 | 0.00 | 0.00 | 0.00 | 75 | 1016.4 |
| 20260509203027 | 77 | 258 | 1.0 | 1.0 | 0.00 | 0.00 | 0.00 | 75 | 1016.4 |
| 20260509202526 | 77 | 258 | 1.0 | 1.0 | 0.00 | 0.00 | 0.00 | 77 | 1016.4 |
| 20260509202022 | 77 | 258 | 5.0 | 6.0 | 0.00 | 0.00 | 0.00 | 76 | 1016.6 |
| 20260509201517 | 77 | 258 | 1.0 | 1.0 | 0.00 | 0.00 | 0.00 | 79 | 1016.5 |
| 20260509201015 | 77 | 258 | 2.0 | 3.0 | 0.00 | 0.00 | 0.00 | 78 | 1016.6 |
| 20260509200510 | 78 | 258 | 1.0 | 1.0 | 0.00 | 0.00 | 0.00 | 77 | 1016.6 |
| 20260509200006 | 76 | 258 | 4.0 | 7.0 | 0.00 | 0.00 | 0.00 | 79 | 1016.6 |
| 20260509195501 | 77 | 258 | 2.0 | 2.0 | 0.00 | 0.00 | 0.00 | 78 | 1016.4 |
| 20260509194956 | 78 | 258 | 3.0 | 3.0 | 0.00 | 0.00 | 0.00 | 76 | 1016.6 |
| 20260509194451 | 79 | 258 | 3.0 | 5.0 | 0.00 | 0.00 | 0.00 | 75 | 1016.7 |
| 20260509193948 | 80 | 258 | 3.0 | 5.0 | 0.00 | 0.00 | 0.00 | 73 | 1016.6 |
| 20260509193443 | 81 | 258 | 4.0 | 5.0 | 0.00 | 0.00 | 0.00 | 71 | 1016.6 |
| 20260509192939 | 80 | 258 | 0.0 | 1.0 | 0.00 | 0.00 | 0.00 | 73 | 1016.5 |
| 20260509192436 | 79 | 258 | 1.0 | 1.0 | 0.00 | 0.00 | 0.00 | 75 | 1016.7 |
| 20260509191931 | 79 | 258 | 2.0 | 2.0 | 0.00 | 0.00 | 0.00 | 73 | 1016.6 |
| 20260509191426 | 80 | 258 | 3.0 | 3.0 | 0.00 | 0.00 | 0.00 | 72 | 1016.9 |
| 20260509190923 | 80 | 258 | 1.0 | 1.0 | 0.00 | 0.00 | 0.00 | 69 | 1016.9 |
| 20260509190420 | 80 | 258 | 1.0 | 1.0 | 0.00 | 0.00 | 0.00 | 73 | 1016.7 |
| 20260509185918 | 81 | 258 | 2.0 | 2.0 | 0.00 | 0.00 | 0.00 | 70 | 1016.7 |
| 20260509185415 | 78 | 258 | 4.0 | 5.0 | 0.00 | 0.00 | 0.00 | 74 | 1016.6 |
| 20260509184911 | 79 | 258 | 2.0 | 2.0 | 0.00 | 0.00 | 0.00 | 74 | 1016.7 |
| 20260509184409 | 80 | 258 | 3.0 | 3.0 | 0.00 | 0.00 | 0.00 | 70 | 1016.6 |
| 20260509183905 | 80 | 258 | 1.0 | 1.0 | 0.00 | 0.00 | 0.00 | 66 | 1016.7 |
| 20260509183354 | 80 | 258 | 0.0 | 0.0 | 0.00 | 0.00 | 0.00 | 69 | 1016.9 |
| 20260509182850 | 81 | 258 | 2.0 | 2.0 | 0.00 | 0.00 | 0.00 | 67 | 1017.0 |
| 20260509182347 | 83 | 258 | 2.0 | 3.0 | 0.00 | 0.00 | 0.00 | 66 | 1017.0 |
| 20260509181845 | 82 | 258 | 2.0 | 3.0 | 0.00 | 0.00 | 0.00 | 67 | 1017.1 |
| 20260509181342 | 79 | 258 | 1.0 | 1.0 | 0.00 | 0.00 | 0.00 | 68 | 1017.3 |
| 20260509180839 | 80 | 258 | 1.0 | 1.0 | 0.00 | 0.00 | 0.00 | 67 | 1017.3 |
| 20260509180335 | 82 | 258 | 2.0 | 3.0 | 0.00 | 0.00 | 0.00 | 67 | 1017.5 |
| 20260509175832 | 83 | 258 | 1.0 | 1.0 | 0.00 | 0.00 | 0.00 | 68 | 1017.3 |
| 20260509175328 | 82 | 258 | 5.0 | 8.0 | 0.00 | 0.00 | 0.00 | 67 | 1017.3 |
| 20260509174824 | 80 | 258 | 2.0 | 3.0 | 0.00 | 0.00 | 0.00 | 69 | 1017.6 |
| 20260509174320 | 82 | 258 | 1.0 | 1.0 | 0.00 | 0.00 | 0.00 | 68 | 1017.7 |
| 20260509173816 | 84 | 258 | 0.0 | 1.0 | 0.00 | 0.00 | 0.00 | 63 | 1017.8 |
| 20260509173312 | 84 | 258 | 1.0 | 1.0 | 0.00 | 0.00 | 0.00 | 51 | 1018.0 |
| 20260509172808 | 83 | 258 | 0.0 | 0.0 | 0.00 | 0.00 | 0.00 | 54 | 1017.7 |
| 20260509172306 | 83 | 258 | 0.0 | 0.0 | 0.00 | 0.00 | 0.00 | 52 | 1017.8 |
| 20260509171801 | 84 | 258 | 2.0 | 3.0 | 0.00 | 0.00 | 0.00 | 53 | 1018.1 |
| 20260509171256 | 84 | 258 | 2.0 | 2.0 | 0.00 | 0.00 | 0.00 | 53 | 1018.0 |
| 20260509170753 | 84 | 258 | 1.0 | 2.0 | 0.00 | 0.00 | 0.00 | 50 | 1018.0 |
| 20260509170249 | 84 | 258 | 6.0 | 8.0 | 0.00 | 0.00 | 0.00 | 46 | 1018.1 |
| 20260509165748 | 84 | 258 | 3.0 | 3.0 | 0.00 | 0.00 | 0.00 | 49 | 1018.2 |
| 20260509165244 | 83 | 258 | 2.0 | 2.0 | 0.00 | 0.00 | 0.00 | 63 | 1018.3 |
| 20260509164740 | 83 | 258 | 3.0 | 3.0 | 0.00 | 0.00 | 0.00 | 60 | 1018.3 |
| 20260509164235 | 84 | 258 | 0.0 | 0.0 | 0.00 | 0.00 | 0.00 | 53 | 1018.5 |
| 20260509163733 | 83 | 258 | 1.0 | 1.0 | 0.00 | 0.00 | 0.00 | 58 | 1018.3 |
| 20260509163229 | 82 | 258 | 3.0 | 3.0 | 0.00 | 0.00 | 0.00 | 56 | 1018.3 |
| 20260509162727 | 82 | 258 | 3.0 | 5.0 | 0.00 | 0.00 | 0.00 | 57 | 1018.2 |
| 20260509162222 | 83 | 258 | 3.0 | 5.0 | 0.00 | 0.00 | 0.00 | 56 | 1018.4 |
| 20260509161717 | 82 | 258 | 1.0 | 2.0 | 0.00 | 0.00 | 0.00 | 55 | 1018.5 |
| 20260509161214 | 83 | 258 | 5.0 | 6.0 | 0.00 | 0.00 | 0.00 | 58 | 1018.5 |
| 20260509160709 | 82 | 258 | 1.0 | 2.0 | 0.00 | 0.00 | 0.00 | 57 | 1018.4 |
| 20260509160206 | 81 | 258 | 2.0 | 2.0 | 0.00 | 0.00 | 0.00 | 60 | 1018.5 |
| 20260509155701 | 82 | 258 | 1.0 | 2.0 | 0.00 | 0.00 | 0.00 | 65 | 1018.5 |
| 20260509155158 | 82 | 258 | 2.0 | 2.0 | 0.00 | 0.00 | 0.00 | 57 | 1018.5 |
| 20260509154654 | 82 | 258 | 3.0 | 3.0 | 0.00 | 0.00 | 0.00 | 62 | 1018.9 |
| 20260509154151 | 82 | 258 | 2.0 | 3.0 | 0.00 | 0.00 | 0.00 | 60 | 1018.6 |
| 20260509153648 | 83 | 258 | 1.0 | 1.0 | 0.00 | 0.00 | 0.00 | 60 | 1018.7 |
| 20260509153145 | 82 | 258 | 0.0 | 1.0 | 0.00 | 0.00 | 0.00 | 61 | 1019.3 |
| 20260509152640 | 82 | 258 | 2.0 | 5.0 | 0.00 | 0.00 | 0.00 | 58 | 1019.0 |
| 20260509152138 | 81 | 258 | 1.0 | 1.0 | 0.00 | 0.00 | 0.00 | 66 | 1019.0 |
| 20260509151634 | 80 | 258 | 1.0 | 2.0 | 0.00 | 0.00 | 0.00 | 64 | 1019.0 |
| 20260509151132 | 80 | 258 | 4.0 | 6.0 | 0.00 | 0.00 | 0.00 | 62 | 1018.9 |
| 20260509150630 | 81 | 258 | 2.0 | 3.0 | 0.00 | 0.00 | 0.00 | 62 | 1019.2 |
| 20260509150128 | 81 | 258 | 1.0 | 2.0 | 0.00 | 0.00 | 0.00 | 64 | 1019.1 |
| 20260509145624 | 82 | 258 | 5.0 | 7.0 | 0.00 | 0.00 | 0.00 | 62 | 1019.1 |
| 20260509145119 | 81 | 258 | 1.0 | 2.0 | 0.00 | 0.00 | 0.00 | 65 | 1019.3 |
| 20260509144616 | 81 | 258 | 4.0 | 5.0 | 0.00 | 0.00 | 0.00 | 64 | 1019.1 |
| 20260509144113 | 80 | 258 | 4.0 | 6.0 | 0.00 | 0.00 | 0.00 | 65 | 1019.2 |
| 20260509143610 | 79 | 258 | 2.0 | 2.0 | 0.00 | 0.00 | 0.00 | 66 | 1019.0 |
| 20260509143108 | 79 | 258 | 4.0 | 6.0 | 0.00 | 0.00 | 0.00 | 66 | 1019.4 |
| 20260509142602 | 79 | 258 | 3.0 | 6.0 | 0.00 | 0.00 | 0.00 | 65 | 1019.2 |
| 20260509142059 | 79 | 258 | 3.0 | 5.0 | 0.00 | 0.00 | 0.00 | 64 | 1019.2 |
| 20260509141555 | 80 | 258 | 4.0 | 6.0 | 0.00 | 0.00 | 0.00 | 64 | 1019.1 |
| 20260509141052 | 80 | 258 | 2.0 | 3.0 | 0.00 | 0.00 | 0.00 | 66 | 1019.1 |
| 20260509140549 | 80 | 258 | 1.0 | 2.0 | 0.00 | 0.00 | 0.00 | 67 | 1019.1 |
| 20260509140047 | 79 | 258 | 2.0 | 3.0 | 0.00 | 0.00 | 0.00 | 67 | 1019.1 |
| 20260509135543 | 79 | 258 | 4.0 | 6.0 | 0.00 | 0.00 | 0.00 | 67 | 1019.0 |
| 20260509135041 | 79 | 258 | 5.0 | 6.0 | 0.00 | 0.00 | 0.00 | 65 | 1019.0 |
| 20260509134538 | 79 | 258 | 2.0 | 3.0 | 0.00 | 0.00 | 0.00 | 64 | 1019.1 |
| 20260509134035 | 79 | 260 | 3.0 | 3.0 | 0.00 | 0.00 | 0.00 | 65 | 1019.1 |
| 20260509133531 | 79 | 269 | 1.0 | 2.0 | 0.00 | 0.00 | 0.00 | 65 | 1019.0 |
| 20260509133024 | 78 | 276 | 1.0 | 1.0 | 0.00 | 0.00 | 0.00 | 65 | 1019.1 |
| 20260509132522 | 78 | 268 | 4.0 | 7.0 | 0.00 | 0.00 | 0.00 | 62 | 1018.9 |
| 20260509132020 | 77 | 252 | 3.0 | 3.0 | 0.00 | 0.00 | 0.00 | 67 | 1019.1 |
| 20260509131516 | 77 | 231 | 7.0 | 9.0 | 0.00 | 0.00 | 0.00 | 64 | 1018.9 |
| 20260509131013 | 77 | 265 | 2.0 | 3.0 | 0.00 | 0.00 | 0.00 | 65 | 1019.1 |
| 20260509130508 | 78 | 236 | 3.0 | 5.0 | 0.00 | 0.00 | 0.00 | 66 | 1018.7 |
| 20260509130006 | 78 | 238 | 2.0 | 2.0 | 0.00 | 0.00 | 0.00 | 67 | 1018.9 |
| 20260509125502 | 78 | 282 | 1.0 | 2.0 | 0.00 | 0.00 | 0.00 | 67 | 1018.9 |
| 20260509124958 | 79 | 254 | 1.0 | 2.0 | 0.00 | 0.00 | 0.00 | 66 | 1018.9 |
| 20260509124455 | 77 | 290 | 0.0 | 1.0 | 0.00 | 0.00 | 0.00 | 68 | 1018.9 |
| 20260509123952 | 77 | 289 | 0.0 | 0.0 | 0.00 | 0.00 | 0.00 | 71 | 1018.9 |
| 20260509123450 | 76 | 288 | 0.0 | 0.0 | 0.00 | 0.00 | 0.00 | 73 | 1018.9 |
| 20260509122945 | 76 | 288 | 0.0 | 0.0 | 0.00 | 0.00 | 0.00 | 71 | 1018.4 |
| 20260509122443 | 76 | 292 | 1.0 | 1.0 | 0.00 | 0.00 | 0.00 | 70 | 1018.4 |
| 20260509121939 | 75 | 293 | 1.0 | 1.0 | 0.00 | 0.00 | 0.00 | 72 | 1018.5 |
| 20260509121436 | 76 | 293 | 1.0 | 1.0 | 0.00 | 0.00 | 0.00 | 72 | 1018.6 |
| 20260509120934 | 76 | 293 | 1.0 | 2.0 | 0.00 | 0.00 | 0.00 | 74 | 1018.3 |
| 20260509120432 | 75 | 295 | 1.0 | 1.0 | 0.00 | 0.00 | 0.00 | 72 | 1018.3 |
| 20260509115930 | 74 | 314 | 0.0 | 0.0 | 0.00 | 0.00 | 0.00 | 77 | 1018.1 |
| 20260509115427 | 73 | 317 | 1.0 | 2.0 | 0.00 | 0.00 | 0.00 | 76 | 1018.2 |
| 20260509114924 | 73 | 297 | 1.0 | 1.0 | 0.00 | 0.00 | 0.00 | 77 | 1018.2 |
| 20260509114423 | 73 | 314 | 2.0 | 2.0 | 0.00 | 0.00 | 0.00 | 75 | 1018.2 |
| 20260509113922 | 73 | 305 | 1.0 | 1.0 | 0.00 | 0.00 | 0.00 | 75 | 1018.3 |
| 20260509113419 | 73 | 298 | 0.0 | 1.0 | 0.00 | 0.00 | 0.00 | 74 | 1018.1 |
| 20260509112915 | 73 | 296 | 0.0 | 1.0 | 0.00 | 0.00 | 0.00 | 76 | 1018.4 |
| 20260509112412 | 71 | 289 | 0.0 | 1.0 | 0.00 | 0.00 | 0.00 | 78 | 1018.0 |
| 20260509111904 | 70 | 290 | 0.0 | 0.0 | 0.00 | 0.00 | 0.00 | 77 | 1018.3 |
| 20260509111400 | 70 | 333 | 1.0 | 1.0 | 0.00 | 0.00 | 0.00 | 80 | 1018.2 |
| 20260509110858 | 69 | 297 | 0.0 | 0.0 | 0.00 | 0.00 | 0.00 | 83 | 1018.5 |
| 20260509110354 | 69 | 298 | 0.0 | 1.0 | 0.00 | 0.00 | 0.00 | 85 | 1018.3 |
| 20260509105853 | 68 | 320 | 1.0 | 1.0 | 0.00 | 0.00 | 0.00 | 82 | 1018.1 |
| 20260509105351 | 67 | 308 | 0.0 | 1.0 | 0.00 | 0.00 | 0.00 | 86 | 1018.1 |
| 20260509104847 | 67 | 312 | 1.0 | 1.0 | 0.00 | 0.00 | 0.00 | 83 | 1018.1 |
| 20260509104343 | 66 | 324 | 1.0 | 1.0 | 0.00 | 0.00 | 0.00 | 85 | 1018.0 |
| 20260509103841 | 65 | 297 | 0.0 | 0.0 | 0.00 | 0.00 | 0.00 | 89 | 1017.9 |
| 20260509103338 | 64 | 307 | 0.0 | 0.0 | 0.00 | 0.00 | 0.00 | 88 | 1017.9 |
| 20260509102837 | 63 | 318 | 0.0 | 0.0 | 0.00 | 0.00 | 0.00 | 92 | 1017.9 |
| 20260509102334 | 63 | 327 | 1.0 | 1.0 | 0.00 | 0.00 | 0.00 | 92 | 1017.9 |
| 20260509101830 | 63 | 322 | 1.0 | 1.0 | 0.00 | 0.00 | 0.00 | 92 | 1018.0 |
| 20260509101326 | 63 | 318 | 1.0 | 1.0 | 0.00 | 0.00 | 0.00 | 92 | 1017.7 |
| 20260509100824 | 63 | 307 | 1.0 | 1.0 | 0.00 | 0.00 | 0.00 | 92 | 1017.6 |
| 20260509100321 | 63 | 313 | 0.0 | 0.0 | 0.00 | 0.00 | 0.00 | 92 | 1017.6 |
| 20260509095817 | 63 | 312 | 1.0 | 1.0 | 0.00 | 0.00 | 0.00 | 92 | 1017.4 |
| 20260509095315 | 63 | 310 | 1.0 | 1.0 | 0.00 | 0.00 | 0.00 | 92 | 1017.5 |
| 20260509094812 | 63 | 311 | 1.0 | 2.0 | 0.00 | 0.00 | 0.00 | 91 | 1017.5 |
| 20260509094309 | 64 | 318 | 1.0 | 1.0 | 0.00 | 0.00 | 0.00 | 91 | 1017.4 |
| 20260509093806 | 64 | 321 | 0.0 | 1.0 | 0.00 | 0.00 | 0.00 | 91 | 1017.3 |
| 20260509093303 | 64 | 337 | 1.0 | 1.0 | 0.00 | 0.00 | 0.00 | 90 | 1017.2 |
| 20260509092802 | 63 | 311 | 0.0 | 1.0 | 0.00 | 0.00 | 0.00 | 92 | 1017.1 |
| 20260509092259 | 63 | 312 | 0.0 | 1.0 | 0.00 | 0.00 | 0.00 | 92 | 1017.1 |
| 20260509091757 | 63 | 306 | 1.0 | 1.0 | 0.00 | 0.00 | 0.00 | 93 | 1017.0 |
| 20260509091254 | 63 | 311 | 0.0 | 1.0 | 0.00 | 0.00 | 0.00 | 93 | 1017.2 |
| 20260509090751 | 63 | 306 | 1.0 | 1.0 | 0.00 | 0.00 | 0.00 | 93 | 1017.1 |
| 20260509090248 | 63 | 309 | 0.0 | 1.0 | 0.00 | 0.00 | 0.00 | 93 | 1017.1 |
| 20260509085745 | 63 | 304 | 0.0 | 0.0 | 0.00 | 0.00 | 0.00 | 93 | 1016.6 |
| 20260509085243 | 63 | 302 | 0.0 | 0.0 | 0.00 | 0.00 | 0.00 | 93 | 1017.0 |